Regional Weather Roundup
Issued by NWS

Home | Current Version | Previous Version | Graphics & Text | Print | Product List | Glossary On
Versions: 1 2 3 4 5 6 7 8 9 10 11 12 13 14 15 16 17 18 19 20 21 22 23 24 25 26 27 28 29 30 31 32 33 34 35 36 37 38 39 40 41 42 43 44 45 46 47 48 49 50
000
ASUS43 KFSD 260802
RWRSD

WEATHER ROUNDUP FOR SOUTH DAKOTA
NATIONAL WEATHER SERVICE SIOUX FALLS SD
200 AM CST WED NOV 26 2014

NOTE: "FAIR" INDICATES FEW OR NO CLOUDS BELOW 12,000 FEET WITH NO
SIGNIFICANT WEATHER AND/OR OBSTRUCTIONS TO VISIBILITY.


SDZ001>005-009-010-012>017-260900-
NORTHWEST AND NORTH CENTRAL SOUTH DAKOTA

CITY           SKY/WX    TMP DP  RH WIND       PRES   REMARKS
BUFFALO          N/A     25  20  81 NW16      30.07R WCI  12
FAITH            N/A     22  17  81 N26G33    30.11R WCI   5
MOBRIDGE       CLOUDY    20  14  77 N20G29    30.08R WCI   4
$$

SDZ012>016-024>037-041>051-057-063-072>074-260900-
SOUTHWEST AND SOUTH CENTRAL SOUTH DAKOTA

CITY           SKY/WX    TMP DP  RH WIND       PRES   REMARKS
RAPID CTY ARPT CLOUDY    27  21  78 N23G30    30.12R WCI  12
PIERRE         CLOUDY    26  22  84 NW29G45   29.99R WCI  10
CUSTER         CLOUDY    23  14  68 NW12      30.01R WCI  12
ELLSWORTH AFB  MOCLDY    26  21  79 N23G29    30.11R WCI  12
PHILIP         CLOUDY    27  20  75 N25G37    30.08R WCI  12
PINE RIDGE     CLOUDY    31  22  69 N16G31    30.08R WCI  20
WINNER         CLOUDY    34  25  69 NW30G40   29.94R WCI  20
$$

SDZ004>011-016>023-039-040-260900-
NORTHEAST SOUTH DAKOTA

CITY           SKY/WX    TMP DP  RH WIND       PRES   REMARKS
ABERDEEN       LGT SNOW  23  19  85 N21G32    30.01R FOG     WCI   8
WATERTOWN      LGT SNOW  25  22  88 NE17      29.88R FOG     WCI  12
SISSETON         N/A     22  19  89 NE20      30.01R WCI   7
$$

SDZ017-020-022-023-036>040-048>070-260900-
SOUTHEAST SOUTH DAKOTA

CITY           SKY/WX    TMP DP  RH WIND       PRES   REMARKS
SIOUX FALLS    LGT SNOW  31  29  92 NE6       29.82R FOG     WCI  25
HURON          CLOUDY    32  30  92 N8        29.87R WCI  25
CHAMBERLAIN    CLOUDY    33  30  89 NW23G29   29.91R WCI  20
MITCHELL       CLOUDY    35  33  92 NW9       29.86R WCI  28
YANKTON        CLOUDY    36  32  87 W13       29.85R
$$

ABBREVIATIONS USED IN REMARKS
   TC - TEMPERATURE IN CELSIUS
  WCI - WIND CHILL INDEX
   HX - HEAT INDEX
  VSB - VISIBILITY



USA.gov is the U.S. government's official web portal to all federal, state and local government web resources and services.